Location: Mococo
(38.0255°N, 122.1161°W)
Time: 06:11:30
(UTC+00:00)

H-2A ROCKET BODY - Pass Details

Date: 13 February 2026
Orbit: 232 x 10735 km, 28.6° (Epoch: 5 March)

Event Time Altitude Azimuth Distance (km) Brightness Sun altitude
Exits shadow 13:41:08 10° 250° (WSW) 8,186 6.7 -16.2°
Maximum altitude 14:00:39 46° 187° (S) 2,039 4.2 -12.4°
Drops below altitude 10° 14:06:08 10° 113° (ESE) 2,437 6.0 -11.3°
Sets 14:07:48 0° 105° (ESE) 3,010 7.2 -11.0°
